STARLINK-1298, 45413

Orbit data source: Space-Track

STARLINK-1298, 45413 is a payload satellite owned by SpaceX/Seattle (US) in LEO that was launched on Wed, 18 Mar 2020 UTC via an FALCON 9 launch vehicle from the Air Force Eastern Test Range (AFETR). Payload-class satellites include a variety of spacecraft equipped with specific instruments for various scientific and technological missions. These include communications satellites like Starlink; space stations such as the ISS; scientific satellites like the Hubble; Earth observation satellites from companies like Planet Labs, Umbra, and HawkEye 360; GPS; miniature CubeSats for education and research; and military/defense satellites.

Loading next visibility...
Identifier
45413, 2020-019BF
Orbit
LEO
Country
Flag of USUS
Related business
Manufacturer
SpaceX/Seattle
Mission
Partially operational Commercial Communications
Bus & Motor
STARLINK, Unknown motor
Mass
260 kg wet, ~248 kg dry
Launch date (UTC)
2020-03-18 (6 years ago)
Launch vehicle
FALCON 9
Launch site
Air Force Eastern Test Range (AFETR)
Object type
Payload
Rocket body
Debris
Shape & HBR
Box + 1 Pan, 10.1 m
Radar Cross Section
13.562 m², Large (>1 m²)

Expand to show TLE details & history
Last TLE update: 20 hours ago

TLE from 20 hours ago
0 STARLINK-1298
1 45413U 20019BF  25338.75002315 -.00032393  00000-0 -40288-3 0  9990
2 45413  53.0441 166.9678 0008204  82.8106 250.7446 15.59021804  5961
Epoch: 2025-12-04T18:00Z
TLE epoch observation values (Epoch: 2025-12-04T18:00:02.000Z)
Latitude
-21.10205°
Longitude
166.37634°
Altitude
398.235 km
Speed
7.671 km/s
True Right ascension
10h 00m 44s
True Declination
-20° 58' 50"
Sunlit
Object was in daylight at epoch
Visualization orbit readout
Latitude
Unknown
Longitude
Unknown
Altitude
Unknown
Speed
Unknown
Apparent Right ascension
Unknown
Apparent Declination
Unknown
Sunlit
N/A
Visualization observer readout
Local Sidereal Time
12:26:07
Azimuth
Unknown
Elevation
Unknown
Doppler factor
Unknown
Orbital elements
Apogee altitude
396.319 km
Perigee altitude
385.212 km
Semi-major axis
6,768.902 km
Eccentricity
0.00082
Inclination
53.0441°
RAAN
166.9678°
Arg. of periapsis
82.8106°
True anomaly
250.65588°
Mean anomaly
250.7446°
Eccentric anomaly
250.70024°
Mean motion
3.89732 °/min
Orbital period
92.37 mins
BSTAR
-0.00040288
Loading maneuver chart data...
Computing Atmospheric mass density...

Documentation

Showing up to 5 results
|